Location: Kiel
(54.2838°N, 10.1714°E)
Time: 05:08:07
(UTC+01:00)

ISS - Visible Passes

Search period start: 22 January 2018 00:00
Search period end: 01 February 2018 00:00
Orbit: 402 x 407 km, 51.6° (Epoch: 22 January)

Date Brightness Start Highest point End Pass type
(mag) Time Alt. Az. Time Alt. Az. Time Alt. Az.
27 Jan -1.1 19:38:32 10° SW 19:39:05 13° SSW 19:39:05 13° SSW visible
28 Jan -2.0 18:46:44 10° SSW 18:49:02 19° SSE 18:49:02 19° SSE visible
29 Jan -1.5 17:55:20 10° S 17:57:00 13° SE 17:58:40 10° ESE visible
29 Jan -2.0 19:29:47 10° SW 19:31:34 26° SSW 19:31:34 26° SSW visible
30 Jan -2.6 18:37:41 10° SW 18:40:34 29° SSE 18:41:23 25° SE visible
30 Jan -0.7 20:13:30 10° WSW 20:14:02 14° WSW 20:14:02 14° WSW visible
31 Jan -2.0 17:45:46 10° SSW 17:48:20 21° SSE 17:50:54 10° E visible
31 Jan -2.9 19:21:11 10° WSW 19:23:48 42° SSW 19:23:48 42° SSW visible
